RH
69 83 88 83 84 84 77 74 67 68 68 80 84 82 68 66 80 88 93 82 80 85 94 93 90 84 90 92 94 90 91 93 89 88 87 88 92 99 97 91 93 96 97
78 77 85 84 80 82 76 75 70 64 65 76 69 88 75 87 89 94 95 94 89 94 92 92 93 86 90 96 91 96 84 84 81 82 82 84 89 89 87 89 91 96 95
77 79 86 82 80 80 82 72 68 58 58 63 91 95 96 90 90 89 91 90 89 90 91 91 91 90 92 93 91 99 94 80 79 75 77 86 92 96 92 89 86 90 96
83 72 76 80 81 79 81 74 65 60 62 82 89 95 94 90 90 95 90 90 87 86 88 91 90 84 83 87 91 89 80 84 77 73 83 82 82 90 90 89 88 82 87
81 71 72 77 80 81 77 75 66 61 72 74 83 85 81 79 82 82 87 87 87 78 80 80 82 80 82 85 86 86 82 82 82 86 87 86 85 87 88 87 89 83 77
89 82 76 74 78 79 79 75 72 66 69 72 77 78 83 80 81 88 85 81 78 83 84 81 85 80 82 84 86 83 83 83 82 88 90 83 85 89 88 85 86 85 75
98 97 93 84 77 77 77 77 82 79 72 68 76 81 81 83 88 75 80 80 86 87 85 86 89 84 82 84 80 81 82 82 81 79 88 86 84 87 88 87 84 83 83
96 98 97 92 89 90 77 75 76 77 77 74 75 82 80 86 81 62 60 73 78 92 98 98 90 87 86 79 77 76 77 82 80 83 79 86 85 85 93 96 90 94 93
83 89 93 94 91 91 88 84 74 75 75 74 78 84 82 78 81 70 56 57 85 100 99 92 83 82 81 79 81 76 77 82 80 82 85 82 82 88 95 94 76 70 80
68 79 84 88 93 90 89 88 87 73 74 74 77 78 76 76 77 74 65 54 50 89 91 82 81 77 77 74 73 80 82 86 83 82 85 78 87 92 96 96 85 83 70
47 59 72 80 86 95 95 92 89 90 74 72 73 78 76 75 79 74 74 61 56 46 60 67 72 79 79 79 82 79 86 89 88 86 87 80 86 90 94 95 97 70 70
52 46 51 61 74 87 98 99 94 92 96 81 73 75 80 79 80 78 76 72 62 56 53 59 60 66 76 81 88 88 86 88 97 88 83 84 88 89 94 95 97 70 72
58 40 39 41 50 70 84 94 99 92 89 88 82 76 75 78 79 82 82 82 73 62 62 70 71 67 71 78 82 85 84 88 93 90 86 87 89 89 96 95 89 80 72
56 54 38 35 31 46 68 76 88 99 100 94 90 85 78 74 75 78 86 86 83 71 66 62 63 64 75 79 84 82 80 80 89 87 84 81 86 81 95 92 95 91 72
57 59 46 39 29 30 39 51 67 88 99 99 98 96 96 85 78 77 78 91 88 74 69 68 61 54 58 75 78 86 79 68 77 88 81 81 81 72 86 94 98 95 79
58 58 50 49 31 28 29 28 42 66 86 84 99 100 99 100 94 83 81 81 93 83 78 72 66 62 53 50 65 75 82 73 73 77 84 84 84 75 69 95 96 96 91
60 62 62 52 32 31 27 25 28 36 46 63 76 88 98 100 99 99 91 84 89 91 86 77 74 67 61 55 48 53 71 83 78 75 76 78 83 79 66 82 92 94 95
60 60 58 59 38 30 30 26 27 30 25 36 51 68 82 95 100 100 100 100 93 89 95 84 80 73 66 59 56 49 53 64 81 72 74 72 77 76 69 65 87 89 95
62 62 60 54 52 42 32 25 26 26 25 29 31 62 54 68 86 99 97 100 100 99 99 92 86 77 72 66 64 55 49 60 72 80 75 70 62 67 64 62 84 86 92
62 64 64 61 59 53 43 39 32 28 25 30 38 35 28 41 57 77 98 98 100 100 100 99 91 86 75 65 68 69 68 69 64 63 71 68 61 62 61 64 76 86 91
60 62 65 67 64 66 55 67 65 52 34 29 43 31 36 28 30 42 64 92 98 100 100 100 99 95 88 77 76 82 77 72 70 68 62 64 63 64 68 68 69 77 89
62 66 65 67 72 71 68 77 81 73 70 49 43 42 43 34 30 29 43 69 96 98 99 100 100 100 95 86 78 83 82 86 84 72 67 64 64 67 71 73 73 75 82
63 69 68 70 71 74 70 74 62 64 67 64 46 42 43 47 47 59 43 40 49 91 98 100 100 100 95 92 78 67 79 74 76 87 81 72 69 71 73 75 74 78 78
64 69 71 74 73 72 72 83 87 85 83 82 86 68 45 50 67 60 76 71 68 78 98 99 100 100 100 92 90 74 63 61 72 90 100 88 79 79 78 75 77 86 85
68 66 72 74 74 75 80 84 89 88 87 88 87 86 72 55 67 73 80 76 47 36 38 80 98 100 100 97 82 80 78 70 69 72 78 92 100 98 99 85 90 84 89
71 71 75 72 77 78 78 79 87 90 93 91 90 91 90 87 70 75 84 84 83 76 62 69 79 94 100 100 99 76 73 72 76 69 78 79 81 91 98 100 100 88 89
Wind_Speed
3 11 10 11 11 12 13 12 14 15 12 15 14 13 11 12 12 14 15 17 16 14 15 17 18 17 17 17 17 19 19 19 20 21 21 22 23 22 23 24 22 20 22
5 12 11 11 11 12 13 11 12 13 14 13 13 13 12 12 12 13 13 14 15 15 15 15 17 17 15 17 16 18 19 20 20 20 21 20 18 20 21 22 20 20 22
8 14 12 11 10 12 11 11 12 12 13 13 12 13 13 12 12 12 13 13 14 14 14 14 16 17 17 17 16 19 20 20 20 19 18 16 15 16 15 16 17 16 20
7 11 13 12 12 11 11 12 12 13 12 13 12 13 14 13 11 13 13 13 15 15 15 15 16 18 18 18 18 18 20 20 18 17 15 15 14 14 14 14 15 14 15
4 8 10 10 12 11 12 12 12 12 12 12 14 13 13 13 12 13 12 13 15 14 15 15 18 19 18 18 20 20 19 18 17 16 15 15 14 12 12 14 13 14 14
11 4 3 4 7 9 10 11 13 12 13 12 14 15 11 12 13 13 13 14 13 16 16 16 17 17 19 19 20 19 18 17 16 16 14 11 11 12 13 13 14 14 13
16 11 1 2 4 7 8 10 10 11 12 13 14 12 12 11 11 12 14 14 13 13 15 15 16 17 17 18 17 18 17 15 16 15 12 11 10 12 12 14 15 14 13
20 18 9 2 3 5 9 11 10 10 10 11 13 14 14 13 10 11 12 14 15 14 14 14 15 14 15 16 16 15 16 16 15 13 12 11 10 12 12 17 16 14 15
25 22 19 11 5 5 7 10 12 13 11 11 14 15 15 13 12 12 11 13 14 15 15 16 15 13 11 12 14 14 14 16 15 13 12 11 10 13 13 15 16 13 16
30 28 24 21 14 6 6 8 12 14 14 13 15 17 15 13 13 12 12 12 12 15 16 16 14 13 11 10 13 15 14 15 15 14 13 10 13 14 13 16 16 15 15
33 33 29 25 21 15 8 6 10 13 15 15 14 16 16 17 17 15 17 15 13 13 16 18 16 13 12 12 13 14 15 15 15 15 13 11 13 14 12 16 17 14 14
35 33 31 29 26 20 16 12 7 12 12 16 17 18 18 20 20 19 19 19 16 16 16 17 18 17 15 14 16 15 16 16 13 16 16 14 13 13 11 17 17 13 13
25 30 32 31 29 26 22 18 16 8 11 12 16 20 21 22 22 21 22 22 21 19 18 18 18 19 19 17 17 18 17 17 15 16 17 16 12 12 12 17 16 13 12
27 29 31 32 31 27 25 23 18 13 11 11 11 17 24 24 24 25 26 27 26 24 20 20 20 20 20 19 17 18 18 19 20 19 17 16 14 11 13 15 17 15 13
28 29 31 31 32 30 27 25 23 19 15 17 10 17 24 26 28 28 28 30 30 27 25 22 21 20 21 21 20 19 20 20 21 20 17 16 15 10 14 15 16 17 16
26 29 30 31 33 30 29 28 25 22 18 18 13 14 11 20 31 32 31 32 35 32 28 26 24 21 21 22 23 22 21 22 23 21 19 18 17 12 13 16 17 19 19
25 25 29 29 33 32 31 29 27 24 23 21 19 17 18 13 12 29 31 34 35 35 31 27 25 22 20 20 21 23 22 23 24 24 21 20 20 15 13 18 18 21 21
25 27 28 29 33 33 32 31 28 25 26 23 22 19 18 21 16 11 20 29 33 35 33 30 28 25 22 22 21 22 25 24 26 26 25 21 21 19 16 17 22 21 23
23 26 28 30 33 33 34 33 29 27 28 25 25 20 23 21 22 19 7 24 31 33 36 34 31 28 25 23 22 21 23 26 26 28 27 25 24 23 20 19 24 21 24
23 25 26 29 31 32 35 34 29 30 29 28 23 27 25 23 23 22 17 8 14 30 37 36 34 31 29 27 24 22 21 22 26 28 30 28 27 27 25 22 25 22 23
23 25 26 28 30 31 36 35 27 35 30 33 26 29 25 26 24 24 23 19 15 17 25 31 33 30 33 28 21 17 19 21 24 27 29 32 31 30 29 25 24 26 23
22 25 25 25 26 26 29 26 20 28 19 23 30 29 26 29 26 24 22 22 20 24 15 31 32 24 25 34 17 8 5 10 21 27 29 32 35 33 29 30 25 29 26
21 22 24 24 24 23 27 26 30 24 24 20 36 35 34 29 26 22 22 22 23 24 20 20 34 33 25 31 32 12 4 7 9 17 26 28 31 32 30 29 29 30 29
20 19 22 21 22 22 25 24 23 22 24 26 26 32 35 29 25 24 21 21 22 22 23 23 21 35 30 26 27 30 23 12 6 4 10 24 29 30 31 31 32 32 31
19 19 22 20 22 22 24 22 20 21 23 27 26 27 29 29 26 24 21 22 25 26 28 28 27 20 37 27 30 28 28 18 16 6 6 13 20 26 25 32 30 34 34
16 18 20 20 21 23 24 24 21 22 24 25 26 26 24 26 30 25 23 24 24 24 27 29 30 26 21 35 29 30 32 25 16 13 4 11 19 22 27 26 29 36 39
Wind_Direction
256 179 175 175 166 162 161 159 154 147 150 149 149 145 141 139 142 143 142 137 133 122 112 112 115 115 114 116 114 114 112 110 107 105 102 99 96 90 91 90 86 91 92
298 197 182 175 173 166 169 163 164 155 151 150 148 141 139 139 142 147 147 141 134 125 121 122 122 123 123 118 120 118 121 117 113 111 106 101 96 97 94 89 83 91 91
326 190 182 176 180 176 167 170 167 158 151 146 144 139 139 140 138 146 153 149 142 137 132 130 129 128 127 124 129 125 125 123 118 111 105 97 97 97 95 94 94 88 93
279 188 189 182 184 182 169 175 170 161 158 150 146 146 141 141 149 150 151 156 149 143 143 139 134 128 132 135 133 132 130 125 121 112 100 99 95 93 97 101 103 101 94
303 188 196 191 186 188 179 181 178 170 167 162 152 151 147 142 138 143 153 156 156 147 148 146 137 139 140 135 132 135 133 128 120 111 106 105 103 102 106 110 114 114 111
21 339 253 228 214 199 192 187 187 185 178 177 168 162 166 163 154 152 146 147 154 155 151 153 151 146 143 140 138 140 138 133 125 116 110 110 101 107 111 111 117 118 120
29 22 76 252 263 241 224 215 202 199 195 188 176 179 176 175 164 161 162 162 157 153 153 157 156 150 148 147 146 146 145 141 131 122 122 111 109 118 124 123 119 122 131
39 41 41 12 246 232 239 221 228 227 215 203 192 197 189 185 187 172 164 169 167 166 155 157 160 159 157 154 150 153 151 149 142 135 131 120 127 130 131 120 115 123 129
48 48 43 36 353 293 246 246 233 229 226 220 210 213 211 201 191 192 175 173 172 163 164 171 167 169 171 177 179 167 161 161 156 151 146 132 143 139 139 131 129 130 112
42 40 43 33 21 348 305 260 245 244 238 231 224 219 222 217 206 200 193 186 186 178 176 177 179 176 176 171 174 174 171 170 168 160 156 141 135 144 149 142 138 135 135
36 35 31 31 28 15 353 307 271 257 252 244 239 234 224 219 214 205 205 198 192 192 191 185 187 186 180 175 177 179 179 182 179 173 164 154 148 152 151 148 139 142 145
15 20 25 25 26 25 26 10 309 285 272 250 243 236 231 226 221 214 209 206 200 195 194 197 195 195 193 186 183 189 192 190 186 181 170 164 158 160 158 155 146 142 147
7 14 18 20 20 22 26 25 27 327 276 271 255 255 241 234 224 219 214 208 207 205 197 197 198 199 199 198 197 198 198 197 194 190 178 174 170 164 168 160 154 148 140
10 9 12 15 16 19 23 25 27 18 14 265 265 261 260 245 234 226 218 215 210 206 203 203 206 204 202 202 202 204 203 203 199 198 194 187 181 176 176 175 164 161 148
11 6 9 10 12 13 16 19 20 25 20 15 287 281 268 256 248 237 232 221 215 211 209 209 209 209 209 207 206 206 209 211 209 205 200 194 192 191 180 186 180 172 162
8 8 7 9 10 12 12 12 16 18 18 9 20 14 332 271 255 247 238 231 219 215 215 211 212 212 214 214 212 210 212 209 209 211 204 200 199 204 196 192 192 183 171
8 5 9 7 9 10 10 9 10 14 11 6 8 3 7 347 332 246 245 239 230 216 216 214 215 215 217 217 216 216 213 214 210 212 213 207 202 209 216 201 202 198 183
8 9 8 8 9 10 8 8 7 7 7 8 3 2 353 359 353 330 240 246 235 223 217 214 214 215 217 218 219 218 217 217 218 215 216 213 212 210 217 212 211 211 191
8 7 7 9 7 7 5 4 5 4 4 5 4 0 352 347 350 360 304 256 244 229 220 217 214 216 216 218 218 220 218 217 218 217 217 215 218 219 220 221 215 220 202
7 8 7 7 6 5 5 1 1 359 2 359 3 353 353 348 345 344 343 306 298 228 224 218 215 216 219 221 218 215 217 224 222 221 221 219 221 222 221 226 217 218 211
8 7 6 3 4 3 4 1 355 353 354 354 354 352 353 347 344 342 334 333 327 332 240 237 220 216 217 219 216 220 227 227 227 225 223 223 224 227 224 226 223 219 210
1 3 1 1 1 2 359 356 350 340 341 346 344 347 348 345 344 339 341 332 320 319 328 238 223 211 216 217 193 193 206 223 230 228 229 229 226 226 226 225 226 221 216
359 359 356 357 355 357 356 352 350 349 339 341 343 342 343 343 342 340 330 326 323 311 308 318 230 214 208 214 205 189 190 218 201 221 222 223 223 223 224 225 229 224 220
351 352 354 355 353 353 356 352 350 344 336 331 330 332 333 337 336 333 331 327 321 321 310 298 289 226 213 208 208 213 219 192 198 190 219 218 218 220 226 230 227 225 223
347 347 350 348 350 350 352 350 344 336 329 327 327 327 329 329 330 328 324 318 314 309 305 297 303 275 221 219 207 203 213 209 206 187 201 206 218 223 224 232 225 225 225
343 345 346 344 345 347 348 346 341 333 329 326 323 325 326 324 323 324 322 318 313 311 309 311 300 293 285 216 217 210 206 207 199 197 186 204 212 217 224 225 224 225 227